Location: Ida Center
(41.8662°N, 83.5713°W)
Time: 04:40:40
(UTC+00:00)

BREEZE-M DEB (TANK) - Pass Details

Date: 17 November 2019
Orbit: 335 x 16595 km, 49.4° (Epoch: 15 December)

Event Time Altitude Azimuth Distance (km) Brightness Sun altitude
Rises 23:10:13 0° 269° (W) 7,423 9.8 -11.0°
Reaches altitude 10° 23:17:31 10° 276° (W) 4,415 8.1 -12.3°
Maximum altitude 23:25:34 36° 342° (NNW) 1,182 4.0 -13.7°
Enters shadow 23:27:45 18° 41° (NE) 1,351 3.8 -14.1°
